N3EG Weather Reports


Display with metric or nautical units.
time (UTC)temp
F
wind
direction
speed
MPH
gust
MPH
rain 1hr
in
rain 24hr
in
rain mn
in
humidity
%
barometer
mb
20260503215503 89 97 2.0 8.0 0.00 0.00 0.00 36 1009.4
20260503215002 89 61 2.0 8.0 0.00 0.00 0.00 37 1009.5
20260503214502 89 334 3.0 6.0 0.00 0.00 0.00 35 1009.7
20260503214003 89 337 4.0 6.0 0.00 0.00 0.00 40 1009.7
20260503213502 88 288 1.0 6.0 0.00 0.00 0.00 41 1009.8
20260503213002 88 83 3.0 6.0 0.00 0.00 0.00 42 1009.8
20260503212503 88 58 2.0 5.0 0.00 0.00 0.00 39 1009.8
20260503212002 88 335 2.0 5.0 0.00 0.00 0.00 45 1009.9
20260503211502 88 303 2.0 4.0 0.00 0.00 0.00 39 1009.9
20260503211003 87 290 1.0 6.0 0.00 0.00 0.00 48 1010.0
20260503210502 87 289 1.0 6.0 0.00 0.00 0.00 40 1010.1
20260503210002 87 342 2.0 6.0 0.00 0.00 0.00 41 1010.1
20260503205503 86 93 2.0 6.0 0.00 0.00 0.00 47 1010.1
20260503205002 86 68 2.0 6.0 0.00 0.00 0.00 40 1010.2
20260503204502 86 91 3.0 6.0 0.00 0.00 0.00 46 1010.3
20260503204003 86 79 0.0 4.0 0.00 0.00 0.00 46 1010.4
20260503203502 86 308 1.0 6.0 0.00 0.00 0.00 48 1010.6
20260503203002 86 327 4.0 6.0 0.00 0.00 0.00 47 1010.6
20260503202503 85 26 2.0 9.0 0.00 0.00 0.00 46 1010.6
20260503202002 85 337 1.0 9.0 0.00 0.00 0.00 46 1010.7
20260503201502 85 354 3.0 9.0 0.00 0.00 0.00 48 1010.7
20260503201003 85 33 2.0 5.0 0.00 0.00 0.00 44 1011.0
20260503200502 84 329 1.0 5.0 0.00 0.00 0.00 42 1011.0
20260503200002 85 338 3.0 8.0 0.00 0.00 0.00 44 1011.1
20260503195503 84 334 2.0 8.0 0.00 0.00 0.00 47 1011.2
20260503195002 84 84 2.0 6.0 0.00 0.00 0.00 45 1011.3
20260503194502 83 333 1.0 4.0 0.00 0.00 0.00 48 1011.3
20260503194003 83 351 2.0 5.0 0.00 0.00 0.00 45 1011.3
20260503193502 82 61 3.0 5.0 0.00 0.00 0.00 51 1011.5
20260503193002 82 1 1.0 5.0 0.00 0.00 0.00 47 1011.4
20260503192503 81 26 0.0 7.0 0.00 0.00 0.00 45 1011.5
20260503192002 81 77 2.0 7.0 0.00 0.00 0.00 48 1011.5
20260503191502 81 81 3.0 5.0 0.00 0.00 0.00 47 1011.6
20260503191003 80 86 1.0 6.0 0.00 0.00 0.00 47 1011.7
20260503190502 80 95 2.0 7.0 0.00 0.00 0.00 47 1011.8
20260503190003 80 77 1.0 7.0 0.00 0.00 0.00 52 1011.9
20260503185503 80 67 2.0 5.0 0.00 0.00 0.00 50 1011.9
20260503185002 80 93 1.0 5.0 0.00 0.00 0.00 51 1012.1
20260503184503 79 325 1.0 4.0 0.00 0.00 0.00 51 1012.1
20260503184003 79 77 2.0 4.0 0.00 0.00 0.00 54 1012.2
20260503183502 78 340 1.0 5.0 0.00 0.00 0.00 53 1012.3
20260503183003 78 67 2.0 5.0 0.00 0.00 0.00 49 1012.2
20260503182503 78 4 2.0 6.0 0.00 0.00 0.00 52 1012.3
20260503182002 77 32 2.0 6.0 0.00 0.00 0.00 53 1012.4
20260503181503 77 25 1.0 4.0 0.00 0.00 0.00 50 1012.5
20260503181003 77 66 2.0 4.0 0.00 0.00 0.00 52 1012.4
20260503180502 77 75 1.0 5.0 0.00 0.00 0.00 55 1012.5
20260503180003 77 66 2.0 5.0 0.00 0.00 0.00 56 1012.5
20260503175503 76 352 1.0 4.0 0.00 0.00 0.00 55 1012.6
20260503175002 76 28 1.0 4.0 0.00 0.00 0.00 54 1012.5
20260503174503 75 325 1.0 6.0 0.00 0.00 0.00 57 1012.6
20260503174003 75 290 3.0 6.0 0.00 0.00 0.00 56 1012.7
20260503173502 74 306 1.0 4.0 0.00 0.00 0.00 58 1012.7
20260503173002 74 89 1.0 4.0 0.00 0.00 0.00 61 1012.8
20260503172503 74 305 2.0 4.0 0.00 0.00 0.00 61 1012.7
20260503172002 73 299 1.0 4.0 0.00 0.00 0.00 60 1012.8
20260503171502 73 313 3.0 4.0 0.00 0.00 0.00 64 1012.8
20260503171003 72 235 1.0 2.0 0.00 0.00 0.00 63 1012.8
20260503170502 71 228 0.0 2.0 0.00 0.00 0.00 63 1012.9
20260503151002 59 319 0.0 1.0 0.00 0.00 0.00 90 1013.4
20260503150503 58 319 0.0 3.0 0.00 0.00 0.00 91 1013.3
20260503131003 49 251 0.0 0.0 0.00 0.00 0.00 93 1013.1
20260503130503 49 251 0.0 1.0 0.00 0.00 0.00 93 1013.1
20260503110503 51 209 0.0 0.0 0.00 0.00 0.00 92 1013.5
20260503090502 54 236 0.0 2.0 0.00 0.00 0.00 91 1013.7
20260503081503 55 38 2.0 4.0 0.00 0.00 0.00 91 1013.8
20260503081002 55 97 1.0 4.0 0.00 0.00 0.00 90 1013.9
20260503080502 56 182 1.0 4.0 0.00 0.00 0.00 90 1013.9
20260503072502 58 331 1.0 3.0 0.00 0.00 0.00 89 1013.8
20260503072003 58 323 1.0 2.0 0.00 0.00 0.00 89 1013.9
20260503071503 58 318 1.0 3.0 0.00 0.00 0.00 89 1013.9
20260503071002 58 346 1.0 3.0 0.00 0.00 0.00 89 1013.8
20260503070503 58 333 2.0 3.0 0.00 0.00 0.00 89 1013.7
20260503055003 61 313 2.0 8.0 0.00 0.00 0.00 85 1013.8
20260503054503 61 312 1.0 8.0 0.00 0.00 0.00 85 1013.7
20260503054003 61 326 3.0 6.0 0.00 0.00 0.00 84 1013.9
20260503053503 61 331 2.0 4.0 0.00 0.00 0.00 84 1013.9
20260503053003 62 336 3.0 8.0 0.00 0.00 0.00 84 1014.0
20260503052503 62 338 3.0 8.0 0.00 0.00 0.00 84 1013.9
20260503052003 62 325 3.0 6.0 0.00 0.00 0.00 84 1013.9
20260503051503 62 307 2.0 5.0 0.00 0.00 0.00 83 1013.9
20260503051002 62 334 3.0 5.0 0.00 0.00 0.00 83 1013.9
20260503050503 62 335 3.0 5.0 0.00 0.00 0.00 83 1013.9
20260503050002 62 335 4.0 5.0 0.00 0.00 0.00 83 1013.8
20260503045503 62 327 2.0 5.0 0.00 0.00 0.00 83 1013.8
20260503045002 62 331 2.0 4.0 0.00 0.00 0.00 82 1013.7
20260503044503 63 309 1.0 4.0 0.00 0.00 0.00 82 1013.6
20260503044003 63 326 2.0 4.0 0.00 0.00 0.00 81 1013.5
20260503043502 63 318 2.0 5.0 0.00 0.00 0.00 81 1013.5
20260503043003 64 327 2.0 5.0 0.00 0.00 0.00 80 1013.4
20260503042502 64 329 1.0 3.0 0.00 0.00 0.00 80 1013.4
20260503042003 64 311 1.0 4.0 0.00 0.00 0.00 79 1013.5
20260503041503 65 303 2.0 4.0 0.00 0.00 0.00 78 1013.2
20260503041002 66 313 1.0 4.0 0.00 0.00 0.00 77 1013.2
20260503040503 66 332 2.0 4.0 0.00 0.00 0.00 76 1013.0
20260503040003 66 317 1.0 3.0 0.00 0.00 0.00 76 1012.9
20260503035502 66 314 1.0 4.0 0.00 0.00 0.00 76 1012.8
20260503035003 66 329 1.0 5.0 0.00 0.00 0.00 76 1012.6
20260503034503 66 342 3.0 5.0 0.00 0.00 0.00 76 1012.6
20260503034002 67 343 2.0 4.0 0.00 0.00 0.00 75 1012.5
20260503033503 67 13 2.0 3.0 0.00 0.00 0.00 75 1012.3
20260503033003 67 301 1.0 2.0 0.00 0.00 0.00 75 1012.3
20260503032502 67 300 0.0 1.0 0.00 0.00 0.00 75 1012.1
20260503032003 68 301 0.0 4.0 0.00 0.00 0.00 74 1012.0
20260503031503 68 289 0.0 4.0 0.00 0.00 0.00 74 1011.8
20260503031002 68 343 2.0 5.0 0.00 0.00 0.00 73 1011.6
20260503030503 69 309 2.0 5.0 0.00 0.00 0.00 73 1011.6
20260503030003 69 311 1.0 5.0 0.00 0.00 0.00 72 1011.5
20260503025502 70 295 2.0 5.0 0.00 0.00 0.00 71 1011.6
20260503025003 70 289 1.0 4.0 0.00 0.00 0.00 71 1011.5
20260503024503 71 297 1.0 7.0 0.00 0.00 0.00 70 1011.7
20260503024002 71 309 3.0 7.0 0.00 0.00 0.00 70 1011.6
20260503023503 72 333 1.0 8.0 0.00 0.00 0.00 69 1011.6
20260503023003 72 307 2.0 8.0 0.00 0.00 0.00 69 1011.6
20260503022503 72 294 1.0 6.0 0.00 0.00 0.00 69 1011.5
20260503022003 73 313 2.0 5.0 0.00 0.00 0.00 68 1011.6
20260503021502 73 300 2.0 5.0 0.00 0.00 0.00 68 1011.5
20260503021003 74 285 1.0 7.0 0.00 0.00 0.00 67 1011.6
20260503020502 74 295 3.0 7.0 0.00 0.00 0.00 65 1011.5
20260503020002 74 314 3.0 7.0 0.00 0.00 0.00 65 1011.5
20260503015503 75 307 2.0 9.0 0.00 0.00 0.00 64 1011.5
20260503015002 75 297 3.0 9.0 0.00 0.00 0.00 63 1011.5
20260503014502 76 316 2.0 5.0 0.00 0.00 0.00 61 1011.5
20260503014003 76 271 2.0 7.0 0.00 0.00 0.00 59 1011.4
20260503013502 76 296 3.0 7.0 0.00 0.00 0.00 57 1011.6
20260503013002 76 292 3.0 6.0 0.00 0.00 0.00 57 1011.6
20260503012503 77 302 2.0 6.0 0.00 0.00 0.00 58 1011.6
20260503012003 77 293 2.0 4.0 0.00 0.00 0.00 57 1011.5
20260503011502 77 284 2.0 7.0 0.00 0.00 0.00 56 1011.6
20260503011003 78 302 4.0 7.0 0.00 0.00 0.00 56 1011.5
20260503010503 78 285 2.0 6.0 0.00 0.00 0.00 57 1011.6
20260503010002 78 297 3.0 6.0 0.00 0.00 0.00 56 1011.5
20260503005503 79 287 3.0 8.0 0.00 0.00 0.00 56 1011.6
20260503005003 79 309 3.0 8.0 0.00 0.00 0.00 56 1011.7
20260503004502 79 319 4.0 6.0 0.00 0.00 0.00 54 1011.8
20260503004003 79 293 2.0 6.0 0.00 0.00 0.00 56 1011.7
20260503003503 79 296 2.0 5.0 0.00 0.00 0.00 59 1011.8
20260503003002 79 224 1.0 3.0 0.00 0.00 0.00 58 1011.8
20260503002503 79 224 2.0 4.0 0.00 0.00 0.00 60 1011.7
20260503002003 79 242 2.0 5.0 0.00 0.00 0.00 60 1011.7
20260503001502 79 233 2.0 5.0 0.00 0.00 0.00 58 1011.8
20260503001003 79 233 1.0 4.0 0.00 0.00 0.00 60 1011.8
20260503000502 79 236 2.0 4.0 0.00 0.00 0.00 58 1011.9
20260503000002 78 229 2.0 3.0 0.00 0.00 0.00 57 1011.9
20260502235503 79 236 2.0 3.0 0.00 0.00 0.00 59 1011.9
20260502235002 78 253 1.0 3.0 0.00 0.00 0.00 61 1012.0
20260502234502 78 249 2.0 3.0 0.00 0.00 0.00 60 1012.0
20260502234003 78 304 1.0 3.0 0.00 0.00 0.00 59 1012.1
20260502233502 77 255 1.0 4.0 0.00 0.00 0.00 63 1012.1
20260502233002 77 304 3.0 4.0 0.00 0.00 0.00 61 1012.2
20260502232503 77 296 2.0 4.0 0.00 0.00 0.00 62 1012.3
20260502232002 77 220 1.0 5.0 0.00 0.00 0.00 60 1012.3
20260502231503 76 273 2.0 7.0 0.00 0.00 0.00 62 1012.3
20260502231003 76 308 3.0 7.0 0.00 0.00 0.00 60 1012.5
20260502230502 76 267 1.0 5.0 0.00 0.00 0.00 63 1012.5
20260502230003 76 290 2.0 5.0 0.00 0.00 0.00 63 1012.6
20260502225503 76 269 2.0 5.0 0.00 0.00 0.00 63 1012.8
20260502225002 76 308 2.0 4.0 0.00 0.00 0.00 63 1012.8
20260502224503 75 297 2.0 5.0 0.00 0.00 0.00 64 1012.9
20260502224003 74 285 1.0 5.0 0.00 0.00 0.00 65 1012.9
20260502223502 74 230 1.0 4.0 0.00 0.00 0.00 66 1013.0
20260502223003 73 187 1.0 4.0 0.00 0.00 0.00 67 1013.1
20260502222503 72 198 1.0 4.0 0.00 0.00 0.00 67 1013.2
20260502222002 72 207 2.0 5.0 0.00 0.00 0.00 71 1013.3
20260502221503 71 223 2.0 5.0 0.00 0.00 0.00 70 1013.3
20260502221003 71 197 2.0 5.0 0.00 0.00 0.00 72 1013.5
20260502220502 70 195 3.0 5.0 0.00 0.00 0.00 71 1013.5
20260502220003 69 203 3.0 5.0 0.00 0.00 0.00 72 1013.5